Location: Unspecified
(50.7693°N, 0.0000°E)
Time: 19:04:51
(UTC+00:00)

Vanguard 1 Rocket - Pass Details

Date: 25 June 2019
Orbit: 651 x 4225 km, 34.3° (Epoch: 18 July)

Event Time Altitude Azimuth Distance (km) Brightness Sun altitude
Rises 13:49:45 0° 198° (SSW) 8,411 12.8 55.7°
Reaches altitude 10° 13:58:34 10° 184° (S) 7,093 12.4 54.6°
Maximum altitude 14:11:55 20° 148° (SSE) 5,409 11.6 52.9°
Drops below altitude 10° 14:21:54 10° 110° (ESE) 5,202 11.1 51.6°
Sets 14:26:42 0° 94° (E) 5,637 11.1 51.0°
